Location: Gajan
(43.0218°N, 1.1244°E)
Time: 15:19:12
(UTC+00:00)

IRIDIUM 104 - Pass Details

Date: 22 April 2021
Orbit: 776 x 779 km, 86.4° (Epoch: 12 May)

Event Time Altitude Azimuth Distance (km) Brightness Sun altitude
Exits shadow 20:03:24 - 173° (S) 2,761 6.8 -13.6°
Reaches altitude 10° 20:04:31 10° 172° (S) 2,323 6.4 -13.7°
Maximum altitude 20:09:41 68° 90° (E) 837 4.3 -14.5°
Drops below altitude 10° 20:14:53 10° 8° (N) 2,338 7.1 -15.3°
Sets 20:17:15 0° 6° (N) 3,270 8.0 -15.7°
